Location: Balmoral
(33.0667°S, 151.5833°E)
Time: 00:29:59
(UTC+00:00)

Meteor 1-31 Rocket - Pass Details

Date: 18 September 2020
Orbit: 521 x 546 km, 97.6° (Epoch: 21 October)

Event Time Altitude Azimuth Distance (km) Brightness Sun altitude
Enters shadow 18:50:08 -1° 338° (NNW) 2,766 6.1 -12.8°
Exits shadow 18:55:44 17° 273° (W) 1,421 4.2 -11.6°
Drops below altitude 10° 18:58:18 10° 232° (SW) 1,833 5.1 -11.1°
Sets 19:01:04 0° 212° (SSW) 2,741 6.1 -10.5°
